Regional Weather Roundup
Issued by NWS

Home | Current Version | Previous Version | Graphics & Text | Print | Product List | Glossary Off
Versions: 1 2 3 4 5 6 7 8 9 10 11 12 13 14 15 16 17 18 19 20 21 22 23 24 25 26 27 28 29 30 31 32 33 34 35 36 37 38 39 40 41 42 43 44 45 46 47 48 49 50

026
ASUS43 KMKX 270800
RWRWI

WISCONSIN REGIONAL WEATHER ROUNDUP
NATIONAL WEATHER SERVICE MILWAUKEE/SULLIVAN WI
300 AM CDT FRI MAY 27 2016

NOTE: "FAIR" INDICATES FEW OR NO CLOUDS BELOW 12,000 FEET WITH NO
SIGNIFICANT WEATHER AND/OR OBSTRUCTIONS TO VISIBILITY.

WIZ001-002-006>008-014>016-023>028-270900-
NORTHWEST WISCONSIN

CITY           SKY/WX    TMP DP  RH WIND       PRES   REMARKS
SUPERIOR ARPT  FOG       47  47 100 CALM      29.86S VSB 1/4
ASHLAND        CLOUDY    45  45 100 CALM      29.87S FOG
HAYWARD        CLEAR     51  49  92 CALM      29.87S
SIREN          CLOUDY    56  54  95 CALM      29.86S
CUMBERLAND     PTCLDY    54  54 100 CALM      29.88R
RICE LAKE      PTCLDY    58  56  92 CALM      29.90R
CHETEK         PTCLDY    56  56  97 CALM      29.88R
LADYSMITH      PTCLDY    57  55  93 CALM      29.89R
EAU CLAIRE     NOT AVBL
MENOMONIE      CLOUDY    61  56  83 CALM      29.87F
NEW RICHMOND   PTCLDY    61  53  75 CALM      29.85F
OSCEOLA        CLOUDY    59  59 100 CALM      29.88S
$$

WIZ003>005-009-010-017-018-270900-
NORTH CENTRAL WISCONSIN

CITY           SKY/WX    TMP DP  RH WIND       PRES   REMARKS
MANITOWISH WTR NOT AVBL
ARBOR VITAE    PTCLDY    57  55  95 CALM      29.88F
WOODRUFF       PTCLDY    57  55  95 CALM      29.88F
RHINELANDER    FOG       54  52  93 CALM      29.89F VSB 1
EAGLE RIVER      N/A     57  56  99 CALM      29.89F
LAND O LAKES   PTCLDY    54  54 100 CALM      29.91R
PHILLIPS       CLOUDY    55  55  99 CALM      29.87F
TOMAHAWK         N/A     52  51  96 CALM      29.89F FOG
MEDFORD        CLOUDY    58  58 100 CALM      29.89R
MERRILL        CLOUDY    54  54 100 CALM      29.90R FOG
$$

WIZ029-030-035-036-043>047-270900-
CENTRAL WISCONSIN

CITY           SKY/WX    TMP DP  RH WIND       PRES   REMARKS
WAUSAU         CLOUDY    59  57  93 E5        29.88R
MOSINEE        MOCLDY    55  55 100 CALM      29.91R
MARSHFIELD     CLOUDY    61  56  83 CALM      29.88S
STEVENS POINT  PTCLDY    54  54  99 CALM      29.90R
WAUPACA        CLOUDY    60  59  98 CALM      29.89R
WAUTOMA        NOT AVBL
WISC RAPIDS    MOCLDY    58  56  93 CALM      29.89F
CAMP DOUGLAS   MOCLDY    57  55  94 S2        29.86F
$$

WIZ011>013-019>022-031-037>040-048>050-270900-
NORTHEAST WISCONSIN

CITY           SKY/WX    TMP DP  RH WIND       PRES   REMARKS
ANTIGO         PTCLDY    55  55  99 CALM      29.90S
SHAWANO        CLEAR     59  56  91 CALM      29.87F
OCONTO         CLEAR     52  52 100 CALM      29.86S
STURGEON BAY   NOT AVBL
GREEN BAY      PTCLDY    60  58  92 CALM      29.87R
MANITOWOC      NOT AVBL
APPLETON       MOCLDY    61  54  77 CALM      29.87R
CLINTONVILLE     N/A     55  55 100 CALM      29.88R FOG
OSHKOSH        MOCLDY    61  57  87 CALM      29.87R
$$

WIZ032>034-041-042-053>061-270900-
SOUTHWEST WISCONSIN

CITY           SKY/WX    TMP DP  RH WIND       PRES   REMARKS
LA CROSSE      CLOUDY    66  61  84 CALM      29.84F
SPARTA         MOCLDY    58  58  99 CALM      29.86F
VIROQUA        CLOUDY    65  61  89 NW7       29.87F
BOSCOBEL       MOCLDY    65  63  93 CALM      29.87R
PRAIRIE DU CHI CLOUDY    67  61  79 E3        29.84R
PLATTEVILLE    CLOUDY    67  59  73 E3        29.87R
$$

WIZ056-057-062-063-064-067-068-270900-
SOUTH CENTRAL WISCONSIN

CITY           SKY/WX    TMP DP  RH WIND       PRES   REMARKS
REEDSBURG      CLOUDY    59  59 100 S3        29.87S
BARABOO/DELLS  CLOUDY    61  58  90 CALM      29.88R
LONE ROCK      NOT AVBL
MINERAL POINT  MOCLDY    66  59  77 SE5       29.88R
MADISON        PTCLDY    61  58  90 CALM      29.86R
MIDDLETON      PTCLDY    62  58  86 CALM      29.88R
WATERTOWN      CLOUDY    61  61 100 CALM      29.86S
MONROE         MOCLDY    70  55  60 E6        29.86S
JANESVILLE     MOCLDY    64  61  88 CALM      29.85S FOG
$$

WIZ051-052-058>065-066-070>072-270900-
SOUTHEAST WISCONSIN

CITY           SKY/WX    TMP DP  RH WIND       PRES   REMARKS
MILWAUKEE      MOCLDY    67  61  81 CALM      29.88R
WAUKESHA       CLOUDY    59  55  88 CALM      29.89R
MILWAUKEE/TIMM CLOUDY    63  55  77 CALM      29.88R
RACINE         MOCLDY    63  58  83 S5        29.90R
BURLINGTON     CLOUDY    62  60  96 CALM      29.88R
KENOSHA        CLOUDY    68  62  81 S5        29.88R
FOND DU LAC    MOCLDY    60  58  92 S3        29.87S
SHEBOYGAN      CLOUDY    60  57  89 CALM      29.88R
WEST BEND      CLOUDY    59  57  94 CALM      29.88S
JUNEAU         PTCLDY    64  62  93 CALM      29.88F
$$

LSZ147-162-270900-
LAKE SUPERIOR

STATION/POSITION TIME  TEMP    WIND        PRES    WAVE
                       AIR SEA DIR/SP/G            HT/PER
                 (UTC) (F)     (DEG/KT/KT) (MB)    (FT/S)
W MID LAKE BUOY  0650   40 38  320/  2/  2 1011.5R   1
DEVILS ISLAND    0700   45     240/  4/  5 1012.0R
SAXON HARBOR     0700   48     320/  2/  3 1011.2R
$$

LMZ867-665-643>646-270900-
LAKE MICHIGAN

STATION/POSITION TIME  TEMP    WIND        PRES    WAVE
                       AIR SEA DIR/SP/G            HT/PER
                 (UTC) (F)     (DEG/KT/KT) (MB)    (FT/S)
CHAMBERS ISLAND  0700   55        CALM     1011.5R
N MID LAKE BUOY  0650   48 45  150/  8/ 10 1011.8R   1/ 5
NORTHPORT PIER   0700   52     150/  7/  8 1011.9R
SISTER BAY       0720   60        CALM       N/A
ALGOMA LAKESHORE 0717             CALM       N/A
KEWAUNEE LAKESHO 0700          170/  1/  2 1010.9R
SHEBOYGAN LAKESH 0700   64     280/  2/  2 1011.7R
PORT WASHINGTON  0700   61      CALM  /  4 1012.2
S MID LAKE BUOY  0650   56 50  170/ 10/ 12 1011.6R   0
KENOSHA   LAKESH 0700   60     170/ 12/ 13 1011.2S
$$

TC  - TEMPERATURE IN CELSIUS
VSB - VISIBILITY IN STATUTE MILES
WCI - WIND CHILL INDEX
HX  - HEAT INDEX





USA.gov is the U.S. government's official web portal to all federal, state and local government web resources and services.